KF5FGL Weather Reports


Display with metric or nautical units.
time (UTC)temp
F
wind
direction
speed
MPH
gust
MPH
rain 1hr
in
rain 24hr
in
rain mn
in
humidity
%
barometer
mb
20260509124527 72 94 1.0 5.0 0.00 0.00 0.00 86 1010.2
20260509123015 72 70 1.0 5.0 0.00 0.00 0.00 86 1010.2
20260509121606 72 50 2.0 5.0 0.00 0.00 0.00 86 1010.3
20260509120021 72 351 2.0 8.0 0.00 0.00 0.00 86 1010.4
20260509114509 72 20 2.0 5.0 0.00 0.00 0.00 85 1010.2
20260509113029 72 13 0.0 0.0 0.00 0.00 0.00 85 1009.6
20260509111516 72 31 0.0 2.0 0.00 0.00 0.00 85 1009.2
20260509110005 72 44 0.0 1.0 0.00 0.00 0.00 86 1009.1
20260509104535 72 43 1.0 4.0 0.00 0.00 0.00 85 1009.3
20260509103015 72 77 0.0 2.0 0.00 0.00 0.00 85 1009.4
20260509101503 72 78 3.0 8.0 0.00 0.00 0.00 85 1009.5
20260509100023 72 29 2.0 5.0 0.00 0.00 0.00 85 1009.6
20260509094511 72 41 1.0 6.0 0.00 0.00 0.00 85 1008.9
20260509093045 72 31 0.0 1.0 0.00 0.00 0.00 85 1008.6
20260509091521 72 69 0.0 0.0 0.00 0.00 0.00 85 1008.2
20260509090009 72 74 0.0 2.0 0.00 0.00 0.00 85 1008.6
20260509084542 72 158 0.0 1.0 0.00 0.00 0.00 85 1008.4
20260509083018 72 199 0.0 2.0 0.00 0.00 0.00 85 1008.5
20260509081505 72 114 0.0 4.0 0.00 0.00 0.00 85 1008.7
20260509080034 72 212 0.0 6.0 0.00 0.00 0.00 84 1009.0
20260509074513 73 160 0.0 4.0 0.00 0.00 0.00 85 1008.9
20260509073102 74 133 1.0 4.0 0.00 0.00 0.00 85 1008.3
20260509071519 73 139 1.0 4.0 0.00 0.00 0.00 84 1009.1
20260509070008 73 144 0.0 4.0 0.00 0.00 0.00 85 1008.8
20260509064526 73 164 0.0 5.0 0.00 0.00 0.00 85 1009.2
20260509063015 73 119 0.0 3.0 0.00 0.00 0.00 85 1009.2
20260509061509 73 148 0.0 2.0 0.00 0.00 0.00 86 1009.4
20260509060024 74 117 0.0 3.0 0.00 0.00 0.00 86 1009.3
20260509054512 74 177 0.0 3.0 0.00 0.00 0.00 86 1009.4
20260509053037 73 120 0.0 3.0 0.00 0.00 0.00 86 1009.7
20260509051533 73 164 0.0 2.0 0.00 0.00 0.00 86 1010.2
20260509050007 73 105 1.0 4.0 0.00 0.00 0.00 86 1009.7
20260509044527 73 182 1.0 5.0 0.00 0.00 0.00 86 1009.7
20260509043016 74 159 0.0 2.0 0.00 0.00 0.00 86 1009.8
20260509041508 72 119 0.0 5.0 0.00 0.00 0.00 86 1009.3
20260509040023 73 135 1.0 4.0 0.00 0.00 0.00 86 1009.3
20260509034511 74 96 0.0 2.0 0.00 0.00 0.00 86 1008.8
20260509033031 73 110 0.0 0.0 0.00 0.00 0.00 86 1008.8
20260509031520 75 110 0.0 1.0 0.00 0.00 0.00 86 1009.1
20260509030009 74 120 0.0 1.0 0.00 0.00 0.00 86 1009.0
20260509024530 74 98 0.0 0.0 0.00 0.00 0.00 86 1008.8
20260509023021 74 96 0.0 0.0 0.00 0.00 0.00 86 1008.6
20260509021508 76 98 0.0 2.0 0.00 0.00 0.00 85 1008.5
20260509020033 75 119 0.0 1.0 0.00 0.00 0.00 86 1008.2
20260509014533 74 115 0.0 3.0 0.00 0.00 0.00 86 1008.0
20260509013005 74 101 0.0 5.0 0.00 0.00 0.00 86 1007.9
20260509011526 75 102 2.0 4.0 0.00 0.00 0.00 86 1007.7
20260509010015 75 96 1.0 4.0 0.00 0.00 0.00 85 1007.7
20260509004504 75 95 0.0 5.0 0.00 0.00 0.00 85 1007.6
20260509003031 75 123 1.0 4.0 0.00 0.00 0.00 85 1007.7
20260509001514 76 119 1.0 4.0 0.00 0.00 0.00 84 1007.7
20260509000002 76 99 0.0 6.0 0.00 0.00 0.00 84 1007.7
20260508234522 76 42 1.0 5.0 0.00 0.00 0.00 84 1007.6
20260508233012 76 77 1.0 5.0 0.00 0.00 0.00 84 1007.8
20260508231601 76 125 2.0 5.0 0.00 0.00 0.00 83 1007.7
20260508230020 76 61 3.0 7.0 0.00 0.00 0.00 83 1007.7
20260508224509 76 99 1.0 4.0 0.00 0.00 0.00 83 1007.9
20260508223027 75 90 1.0 6.0 0.00 0.00 0.00 83 1007.9
20260508221516 75 93 2.0 5.0 0.00 0.00 0.00 83 1008.1
20260508220005 75 76 2.0 6.0 0.00 0.00 0.00 82 1008.3
20260508214509 75 28 2.0 7.0 0.00 0.00 0.00 82 1008.3
20260508213033 75 99 3.0 7.0 0.00 0.00 0.00 82 1008.5
20260508211523 75 86 2.0 6.0 0.00 0.00 0.00 82 1008.6
20260508210002 74 79 2.0 5.0 0.00 0.00 0.00 82 1009.0
20260508204522 74 76 2.0 6.0 0.00 0.00 0.00 81 1009.2
20260508203009 74 104 2.0 8.0 0.00 0.00 0.00 81 1009.1
20260508201528 73 60 2.0 8.0 0.00 0.00 0.00 82 1009.4
20260508200014 73 87 2.0 7.0 0.00 0.00 0.00 82 1009.6
20260508194503 73 101 2.0 6.0 0.00 0.00 0.00 83 1009.7
20260508193021 71 116 2.0 6.0 0.00 0.00 0.00 83 1009.8
20260508191509 71 146 1.0 7.0 0.00 0.00 0.00 83 1010.0
20260508190024 71 141 1.0 7.0 0.00 0.00 0.00 83 1010.1
20260508184512 71 83 2.0 5.0 0.00 0.00 0.00 83 1010.2
20260508183028 70 99 2.0 5.0 0.00 0.00 0.00 82 1010.5
20260508181515 70 74 0.0 4.0 0.00 0.00 0.00 81 1010.8
20260508180003 70 163 0.0 3.0 0.00 0.00 0.00 81 1011.3
20260508174527 70 97 0.0 2.0 0.00 0.00 0.00 81 1011.2
20260508173008 69 144 1.0 4.0 0.00 0.00 0.00 81 1011.3
20260508171529 69 69 1.0 3.0 0.00 0.00 0.00 82 1011.3
20260508170014 68 85 0.0 5.0 0.00 0.00 0.00 82 1011.5
20260508164503 68 101 2.0 5.0 0.00 0.00 0.00 82 1011.5
20260508163019 68 80 2.0 5.0 0.00 0.00 0.00 83 1011.8
20260508161507 67 101 1.0 6.0 0.00 0.00 0.00 83 1011.8
20260508160021 66 15 1.0 8.0 0.00 0.00 0.00 84 1012.1
20260508154509 65 66 2.0 6.0 0.00 0.00 0.00 85 1012.2
20260508153029 65 310 3.0 5.0 0.00 0.00 0.00 85 1012.6
20260508151528 64 45 2.0 6.0 0.00 0.00 0.00 85 1012.7
20260508150007 64 15 1.0 6.0 0.00 0.00 0.00 87 1012.7
20260508144523 63 38 2.0 8.0 0.00 0.00 0.00 87 1012.9
20260508143012 63 356 4.0 7.0 0.00 0.00 0.00 87 1013.0
20260508141505 63 21 4.0 8.0 0.00 0.00 0.00 87 1012.8
20260508140033 63 19 2.0 6.0 0.00 0.00 0.00 87 1012.9
20260508134510 63 13 2.0 7.0 0.00 0.00 0.00 87 1012.6
20260508133029 63 27 2.0 7.0 0.00 0.00 0.00 87 1012.6
20260508131517 63 56 1.0 4.0 0.00 0.00 0.00 86 1012.8
20260508130006 63 356 0.0 3.0 0.00 0.00 0.00 87 1012.9